Date String (YYYY-MM-DD hh:mm:ss) UTC,Instrument flags,Ambient pressure (hPa),Sample flow (lpm),Bypass flow (lpm),Sample temperature (°C),Ambient temperature (°C),ASC tube jacket temperature (°C),LED temperature (°C),Box temperature (°C),Sample RH (%),Span deviation,Mass concentration (μg/m³),Mass concentration (μg/m³),Mass concentration (μg/m³)
DateTimeUTC,F1_M11,P_M11,Q1_M11,Q2_M11,T1_M11,T2_M11,T3_M11,T4_M11,T5_M11,U1_M11,ZSPAN_M11,X0_M11,X2_M11,X1_M11
2022-01-31 01:00:00,,0823.6,5.00,0.00,28.3,27.5,00.0,37.4,30.0,04.9,0000.0,0005.03,0003.21,0003.04
2022-01-31 01:01:00,,0823.6,5.00,0.00,28.3,27.5,00.0,37.4,30.0,05.1,0000.0,0004.92,0003.17,0002.98
2022-01-31 01:02:00,,0823.6,4.98,0.00,28.3,27.5,00.0,37.4,30.0,05.2,0000.0,0004.65,0003.06,0002.87
2022-01-31 01:03:00,,0823.6,5.00,0.00,28.3,27.5,00.0,37.4,30.0,05.3,0000.0,0004.74,0003.10,0002.88
2022-01-31 01:04:00,,0823.7,5.01,0.00,28.3,27.5,00.0,37.4,30.1,05.5,0000.0,0004.85,0003.16,0002.98
2022-01-31 01:05:00,,0823.7,4.99,0.00,28.3,27.5,00.0,37.3,30.1,05.8,0000.0,0005.19,0003.25,0003.10
2022-01-31 01:06:00,,0823.7,5.01,0.00,28.3,27.4,00.0,37.3,30.1,06.1,0000.0,0005.72,0003.44,0003.28
2022-01-31 01:07:00,,0823.6,4.99,0.00,28.3,27.4,00.0,37.3,30.1,06.2,0000.0,0006.71,0003.63,0003.44
2022-01-31 01:08:00,,0823.6,5.00,0.00,28.3,27.4,00.0,37.3,30.1,06.2,0000.0,0007.50,0003.84,0003.64
2022-01-31 01:09:00,,0823.7,5.00,0.00,28.3,27.4,00.0,37.3,30.0,06.3,0000.0,0007.74,0004.00,0003.78
2022-01-31 01:10:00,,0823.7,5.00,0.00,28.3,27.4,00.0,37.3,30.0,06.3,0000.0,0007.89,0004.16,0003.94
2022-01-31 01:11:00,,0823.7,5.01,0.00,28.3,27.3,00.0,37.3,30.0,06.4,0000.0,0007.77,0004.34,0004.10
2022-01-31 01:12:00,,0823.8,4.99,0.00,28.3,27.3,00.0,37.3,30.0,06.4,0000.0,0007.94,0004.49,0004.24
2022-01-31 01:13:00,,0823.8,5.01,0.00,28.3,27.3,00.0,37.3,30.0,06.3,0000.0,0008.12,0004.64,0004.37
2022-01-31 01:14:00,,0823.9,4.99,0.00,28.3,27.3,00.0,37.3,30.0,06.4,0000.0,0008.26,0004.77,0004.51
2022-01-31 01:15:00,,0823.9,5.00,0.00,28.3,27.4,00.0,37.3,30.0,06.4,0000.0,0008.54,0004.88,0004.61
2022-01-31 01:16:00,,0823.9,5.01,0.00,28.3,27.4,00.0,37.3,30.0,06.2,0000.0,0008.89,0005.03,0004.73
2022-01-31 01:17:00,,0823.9,4.98,0.00,28.2,27.4,00.0,37.2,30.0,06.2,0000.0,0008.97,0005.10,0004.81
2022-01-31 01:18:00,,0823.8,5.01,0.00,28.2,27.4,00.0,37.2,30.0,06.1,0000.0,0008.69,0005.17,0004.88
2022-01-31 01:19:00,,0823.8,5.01,0.00,28.2,27.4,00.0,37.2,30.0,06.1,0000.0,0008.55,0005.23,0004.94
2022-01-31 01:20:00,,0823.8,5.00,0.00,28.2,27.3,00.0,37.2,30.0,06.1,0000.0,0008.77,0005.34,0005.03
2022-01-31 01:21:00,,0823.8,4.99,0.00,28.2,27.3,00.0,37.2,30.0,06.2,0000.0,0009.08,0005.44,0005.10
2022-01-31 01:22:00,,0823.8,5.02,0.00,28.2,27.3,00.0,37.2,30.0,06.3,0000.0,0009.92,0005.51,0005.17
2022-01-31 01:23:00,,0823.8,4.98,0.00,28.2,27.3,00.0,37.2,30.0,06.3,0000.0,0009.97,0005.56,0005.24
2022-01-31 01:24:00,,0823.8,5.01,0.00,28.2,27.3,00.0,37.2,30.0,06.4,0000.0,0010.08,0005.63,0005.30
2022-01-31 01:25:00,,0823.8,4.99,0.00,28.2,27.3,00.0,37.2,30.0,06.2,0000.0,0010.24,0005.72,0005.36
2022-01-31 01:26:00,,0823.8,5.01,0.00,28.2,27.3,00.0,37.2,29.9,06.2,0000.0,0010.29,0005.81,0005.45
2022-01-31 01:27:00,,0823.8,5.00,0.00,28.2,27.3,00.0,37.2,29.9,06.2,0000.0,0010.22,0005.85,0005.50
2022-01-31 01:28:00,,0823.9,4.99,0.00,28.2,27.3,00.0,37.2,29.9,06.2,0000.0,0010.50,0005.89,0005.54
2022-01-31 01:29:00,,0823.9,5.01,0.00,28.2,27.3,00.0,37.1,29.9,06.2,0000.0,0011.21,0005.93,0005.59
2022-01-31 01:30:00,,0823.9,4.98,0.00,28.2,27.3,00.0,37.1,29.9,06.2,0000.0,0011.36,0005.96,0005.64
2022-01-31 01:31:00,,0823.9,5.01,0.00,28.2,27.3,00.0,37.1,29.9,06.3,0000.0,0011.30,0006.01,0005.69
2022-01-31 01:32:00,,0823.9,4.99,0.00,28.1,27.3,00.0,37.1,29.9,06.3,0000.0,0011.41,0006.04,0005.73
2022-01-31 01:33:00,,0823.9,5.02,0.00,28.1,27.3,00.0,37.1,29.9,06.3,0000.0,0011.13,0006.09,0005.79
2022-01-31 01:34:00,,0823.9,4.98,0.00,28.1,27.3,00.0,37.1,29.9,06.4,0000.0,0011.19,0006.15,0005.85
2022-01-31 01:35:00,,0824.0,5.00,0.00,28.1,27.3,00.0,37.1,29.8,06.3,0000.0,0011.46,0006.21,0005.89
2022-01-31 01:36:00,,0823.9,5.01,0.00,28.1,27.3,00.0,37.1,29.8,06.3,0000.0,0011.73,0006.25,0005.94
2022-01-31 01:37:00,,0823.9,4.99,0.00,28.1,27.3,00.0,37.1,29.8,06.2,0000.0,0011.77,0006.31,0005.97
2022-01-31 01:38:00,,0823.9,5.00,0.00,28.1,27.2,00.0,37.1,29.8,06.2,0000.0,0011.82,0006.32,0006.00
2022-01-31 01:39:00,,0823.9,4.99,0.00,28.1,27.2,00.0,37.1,29.8,06.2,0000.0,0012.06,0006.34,0006.01
2022-01-31 01:40:00,,0823.8,5.02,0.00,28.0,27.2,00.0,37.1,29.7,06.1,0000.0,0012.12,0006.37,0006.00
2022-01-31 01:41:00,,0823.9,4.99,0.00,28.0,27.2,00.0,37.0,29.7,06.0,0000.0,0012.06,0006.36,0005.94
2022-01-31 01:42:00,,0823.9,5.01,0.00,28.0,27.2,00.0,37.0,29.7,05.8,0000.0,0012.25,0006.29,0005.84
2022-01-31 01:43:00,,0823.9,5.00,0.00,28.0,27.2,00.0,37.0,29.7,05.8,0000.0,0012.04,0006.20,0005.74
2022-01-31 01:44:00,,0823.9,4.99,0.00,28.0,27.2,00.0,37.0,29.7,05.8,0000.0,0011.57,0006.13,0005.62
2022-01-31 01:45:00,,0823.9,5.01,0.00,28.0,27.2,00.0,37.0,29.7,05.9,0000.0,0011.75,0006.09,0005.51
2022-01-31 01:46:00,,0823.9,4.98,0.00,27.9,27.2,00.0,37.0,29.6,05.8,0000.0,0011.67,0006.03,0005.40
2022-01-31 01:47:00,,0823.9,5.01,0.00,27.9,27.1,00.0,37.0,29.6,05.7,0000.0,0011.65,0005.96,0005.26
2022-01-31 01:48:00,,0823.9,4.98,0.00,27.9,27.1,00.0,37.0,29.7,05.6,0000.0,0011.61,0005.82,0005.13
2022-01-31 01:49:00,,0823.9,5.02,0.00,27.9,27.1,00.0,37.0,29.7,05.6,0000.0,0011.59,0005.73,0004.99
2022-01-31 01:50:00,,0823.9,4.98,0.00,27.9,27.1,00.0,37.0,29.7,05.6,0000.0,0011.18,0005.63,0004.86
2022-01-31 01:51:00,,0823.9,5.01,0.00,27.9,27.1,00.0,37.0,29.7,05.8,0000.0,0010.47,0005.55,0004.79
2022-01-31 01:52:00,,0823.9,4.98,0.00,27.9,27.1,00.0,36.9,29.7,05.7,0000.0,0010.57,0005.48,0004.75
2022-01-31 01:53:00,,0823.9,5.01,0.00,27.9,27.1,00.0,36.9,29.6,05.7,0000.0,0010.49,0005.47,0004.74
2022-01-31 01:54:00,,0823.9,4.99,0.00,27.9,27.1,00.0,36.9,29.6,05.7,0000.0,0010.47,0005.48,0004.76
2022-01-31 01:55:00,,0823.9,5.01,0.00,27.9,27.1,00.0,36.9,29.6,05.7,0000.0,0010.37,0005.46,0004.77
2022-01-31 01:56:00,,0823.9,4.99,0.00,27.9,27.1,00.0,36.9,29.6,05.7,0000.0,0010.28,0005.43,0004.76
2022-01-31 01:57:00,,0823.9,5.01,0.00,27.9,27.1,00.0,36.9,29.6,05.6,0000.0,0010.19,0005.40,0004.75
2022-01-31 01:58:00,,0823.9,4.99,0.00,27.9,27.0,00.0,36.9,29.6,05.6,0000.0,0010.32,0005.33,0004.74
2022-01-31 01:59:00,,0823.9,5.01,0.00,27.9,27.1,00.0,36.9,29.6,05.6,0000.0,0010.61,0005.35,0004.73
